[[{"header":{"parameterUnit":"m.s-1","parameterCategory":1,"la1":30.2991,"la2":30.254,"lo1":-89.0895,"lo2":-89.0444,"dy":0.0017,"dx":0.0017,"nx":28,"ny":28,"refTime":"2026-02-08T03:00:00:Z","depth":0,"parameterNumber":2,"parameterNumberName":"U-component_of_WINDS"},"data":[0,0,0,0,0,0,0,0,0,0,0,0,0,0,0,0,0,0,0,0,0,0,0,0,0,0,0,0,0,0,0,0,0,0,0,0,0,0,0,0,0,0,0,0,0,0,0,0,0,0,0,0,0,0,0,0,0,0,0.0943,0.0942,0,0.0913,0.0913,0.0912,0.0872,0.0871,0.0871,0.087,0.0839,0.0839,0.0839,0,0,0,0,0,0,0,0,0,0,0,0,0,0.0964,0.0964,0.0943,0.0942,0.0942,0.0913,0.0913,0.0912,0.0872,0.0871,0.087,0.087,0.0839,0.0839,0.0839,0,0,0,0,0,0,0,0,0,0,0,0,0,0.0947,0.0964,0.0943,0.0919,0.0916,0.0913,0.0913,0.0912,0.0872,0.0871,0.087,0.0869,0.0839,0.0839,0.0839,0.0857,0,0,0.0838,0.0838,0,0,0,0,0,0,0,0,0.0948,0.0946,0.0922,0.092,0.0917,0.0895,0.0909,0.0894,0.0873,0.0889,0.087,0.0869,0.0859,0.0857,0.0853,0.0856,0.0854,0.0838,0.0838,0.0837,0.0837,0,0,0,0,0,0,0,0.0949,0.0947,0.0931,0.0922,0.0919,0.0909,0.0905,0.0906,0.088,0.0887,0.0884,0.0881,0.0857,0.0854,0.0852,0.0854,0.0838,0.0837,0.0837,0.0837,0.087,0.0871,0,0,0,0,0,0,0.0954,0.0948,0.0932,0.093,0.093,0.0909,0.0905,0.0903,0.088,0.0875,0.0882,0.088,0.0855,0.0853,0.0851,0.0871,0.0837,0.0837,0.0837,0.0869,0.087,0.0871,0,0,0,0,0,0,0.0955,0.0953,0.0933,0.0938,0.0935,0.091,0.0908,0.0903,0.09,0.0876,0.0871,0.0884,0.0854,0.0851,0.0856,0.087,0.0837,0.0837,0.0867,0.0869,0.087,0.0912,0,0,0,0,0,0,0.0955,0.0953,0.096,0.0939,0.0935,0.0939,0.0909,0.0903,0.09,0.0896,0.0876,0.0872,0.0853,0.0857,0.0856,0.0869,0.0836,0.0866,0.0868,0.087,0.0909,0.0915,0.0919,0,0,0,0,0,0.0956,0.0973,0.0961,0.0959,0.0943,0.094,0.0938,0.0916,0.0901,0.0908,0.0892,0.0872,0.0868,0.0857,0.0856,0.0869,0.0865,0.0868,0.087,0.0907,0.0914,0.0919,0,0,0,0,0,0,0.0997,0.097,0.0956,0.0966,0.0956,0.0933,0.0941,0.0923,0.0917,0.0914,0.0886,0.0882,0.089,0.088,0.0868,0.0885,0.0864,0.0866,0.0892,0.0898,0.0903,0.0906,0.0836,0,0,0,0,0,0.1007,0.1006,0.0983,0.0994,0.0989,0.0966,0.0964,0.0948,0.0936,0.0931,0.0916,0.0905,0.0901,0.0899,0.0894,0.0907,0.0902,0.0915,0.092,0.0925,0.0927,0.0934,0.0939,0.0879,0.0879,0.0879,0,0,0.1028,0.1013,0.1014,0.1002,0.0992,0.0992,0.0963,0.0964,0.0964,0.0931,0.0935,0.0923,0.0909,0.0918,0.0921,0.0909,0.0943,0.0928,0.0931,0.0931,0.0937,0.0942,0.0947,0.088,0.088,0.088,0,0,0.1066,0.1055,0.1063,0.1053,0.1038,0.1023,0.1025,0.1005,0.0996,0.0999,0.0974,0.0974,0.0967,0.0958,0.0953,0.0987,0.0969,0.0986,0.1013,0.102,0.1025,0.1029,0.1042,0.1046,0.0989,0.0989,0.0989,0,0.1094,0.1093,0.1069,0.1072,0.1068,0.1038,0.1046,0.1038,0.1022,0.102,0.1007,0.0999,0.0987,0.0993,0.1002,0.0998,0.1,0.0989,0.1026,0.103,0.1033,0.1045,0.105,0.0991,0.0991,0.0991,0.099,0,0.1128,0.1128,0.1137,0.1123,0.1119,0.1125,0.1101,0.11,0.1085,0.107,0.1074,0.1058,0.105,0.105,0.1035,0.1055,0.1048,0.1031,0.1008,0.1042,0.1052,0.1057,0.0994,0.0994,0.0993,0.0992,0,0,0.1192,0.1164,0.1168,0.1161,0.1142,0.1142,0.1146,0.1138,0.1138,0.1128,0.1131,0.1126,0.111,0.1104,0.1087,0.1093,0.1122,0.1075,0.1074,0.1085,0.1143,0.1156,0.1162,0.1109,0.111,0.111,0.1144,0,0.1227,0.1233,0.1212,0.1223,0.1223,0.1194,0.1198,0.1187,0.1173,0.1171,0.1156,0.1153,0.1132,0.1128,0.1133,0.1117,0.1133,0.1114,0.1111,0.1112,0.1117,0.1168,0.1182,0.1215,0.1148,0.1149,0.1149,0,0.1269,0.1262,0.1273,0.1254,0.1253,0.1257,0.1248,0.1246,0.1232,0.1222,0.1215,0.1196,0.1198,0.1176,0.1179,0.1167,0.1165,0.1157,0.1157,0.1157,0.1133,0.1169,0.1225,0.123,0.1156,0.1155,0.1155,0,0.1315,0.1308,0.1314,0.1309,0.1286,0.1289,0.128,0.1266,0.1262,0.1254,0.1252,0.1244,0.124,0.1234,0.1213,0.1199,0.1218,0.1195,0.121,0.1211,0.1216,0.1216,0.1273,0.1214,0.1214,0.1213,0.1213,0,0.1357,0.1365,0.1334,0.1338,0.1346,0.1321,0.133,0.1318,0.1305,0.1306,0.1281,0.1282,0.1254,0.1252,0.1235,0.124,0.1238,0.123,0.1226,0.1233,0.1234,0.1231,0.1229,0.1215,0.1214,0.1214,0.1214,0,0.141,0.1389,0.1394,0.1372,0.1367,0.1374,0.1355,0.1358,0.1343,0.1344,0.1343,0.1319,0.1316,0.1294,0.1285,0.1274,0.1285,0.1276,0.129,0.1287,0.1304,0.1303,0.1362,0.1368,0.1304,0.1305,0.1305,0,0.1438,0.1444,0.1423,0.1422,0.1414,0.1412,0.1409,0.1384,0.1381,0.1366,0.1371,0.1365,0.1359,0.1355,0.1337,0.133,0.132,0.1341,0.1319,0.1326,0.1321,0.1322,0.1322,0.1346,0.1347,0.1348,0.1348,0,0.1491,0.148,0.1476,0.1469,0.1465,0.1458,0.1449,0.145,0.1422,0.1421,0.1417,0.1412,0.1404,0.1398,0.1388,0.1378,0.1359,0.1355,0.1359,0.1366,0.1375,0.1371,0.1304,0.1354,0.1354,0.1353,0.1353,0.1353,0.1533,0.1537,0.1523,0.1519,0.151,0.1502,0.1504,0.1489,0.1485,0.1476,0.1462,0.146,0.1446,0.1431,0.1422,0.1421,0.1409,0.1414,0.1415,0.1417,0.1421,0.1374,0.1419,0.1418,0.1418,0.1418,0.1418,0,0.1585,0.1574,0.1571,0.156,0.1557,0.1539,0.1528,0.1527,0.1526,0.1515,0.151,0.1505,0.15,0.1481,0.1474,0.1476,0.1467,0.1475,0.1475,0.1473,0.1431,0.1429,0.1483,0.1483,0.1483,0.1483,0.1483,0.1483,0.1611,0.1617,0.1605,0.1606,0.1595,0.1594,0.1589,0.1582,0.1573,0.157,0.1565,0.1553,0.1539,0.153,0.1525,0.1519,0.1518,0.1529,0.1521,0.1482,0.1476,0.147,0.1468,0.1529,0.1529,0.1563,0.1564,0.1564]},{"header":{"parameterUnit":"m.s-1","parameterCategory":1,"la1":30.2991,"la2":30.254,"lo1":-89.0895,"lo2":-89.0444,"dy":0.0017,"dx":0.0017,"nx":28,"ny":28,"refTime":"2026-02-08T03:00:00:Z","depth":0,"parameterNumber":3,"parameterNumberName":"V-component_of_WINDS"},"data":[0,0,0,0,0,0,0,0,0,0,0,0,0,0,0,0,0,0,0,0,0,0,0,0,0,0,0,0,0,0,0,0,0,0,0,0,0,0,0,0,0,0,0,0,0,0,0,0,0,0,0,0,0,0,0,0,0,0,2.5539,2.554,0,2.5634,2.5635,2.5636,2.5635,2.5634,2.5632,2.5631,2.573,2.5733,2.5737,0,0,0,0,0,0,0,0,0,0,0,0,0,2.5357,2.5361,2.5539,2.554,2.5541,2.5634,2.5635,2.5636,2.5635,2.5634,2.5632,2.5631,2.5728,2.5733,2.5737,0,0,0,0,0,0,0,0,0,0,0,0,0,2.5443,2.5362,2.5538,2.5552,2.5554,2.5633,2.5635,2.5636,2.5636,2.5634,2.5632,2.563,2.5727,2.5732,2.5738,2.5811,0,0,2.5755,2.5758,0,0,0,0,0,0,0,0,2.5438,2.5449,2.5548,2.5551,2.5553,2.5621,2.5607,2.5695,2.5636,2.5605,2.5631,2.5629,2.5695,2.5703,2.5725,2.5816,2.582,2.5756,2.5759,2.5762,2.5763,0,0,0,0,0,0,0,2.5432,2.5445,2.5576,2.555,2.5553,2.5553,2.5563,2.5624,2.5659,2.5607,2.5607,2.5618,2.5696,2.572,2.5727,2.5821,2.5756,2.5761,2.5764,2.5767,2.5977,2.5979,0,0,0,0,0,0,2.5423,2.544,2.5573,2.5579,2.549,2.5558,2.5569,2.5601,2.5659,2.5665,2.562,2.5618,2.5711,2.5721,2.5731,2.5821,2.5762,2.5767,2.577,2.5975,2.5977,2.598,0,0,0,0,0,0,2.5419,2.5435,2.5569,2.551,2.5527,2.5563,2.5599,2.5604,2.5628,2.5668,2.5675,2.5638,2.571,2.5723,2.5791,2.5824,2.577,2.5775,2.5972,2.5976,2.5979,2.6001,0,0,0,0,0,0,2.5414,2.5434,2.5461,2.551,2.553,2.5628,2.5601,2.5607,2.5637,2.5636,2.5687,2.5693,2.5709,2.5783,2.5797,2.5831,2.5779,2.5969,2.5974,2.5978,2.5997,2.6004,2.601,0,0,0,0,0,2.5408,2.5464,2.5463,2.5479,2.5566,2.563,2.5641,2.5658,2.564,2.5668,2.5695,2.5692,2.5818,2.579,2.5806,2.5842,2.5968,2.5973,2.5977,2.5994,2.6003,2.601,0,0,0,0,0,0,2.5419,2.5471,2.547,2.5544,2.5582,2.5629,2.5666,2.5667,2.5711,2.5708,2.5728,2.5739,2.5808,2.5831,2.5799,2.5916,2.5891,2.5899,2.5898,2.5907,2.5913,2.5906,2.5784,0,0,0,0,0,2.5429,2.5477,2.552,2.5581,2.56,2.563,2.5658,2.5668,2.5709,2.5725,2.5756,2.5796,2.5845,2.5877,2.5924,2.6,2.6012,2.6033,2.604,2.6045,2.6052,2.6095,2.6105,2.5996,2.5996,2.5996,0,0,2.5453,2.5487,2.5516,2.5584,2.5615,2.5664,2.5644,2.5696,2.5733,2.5733,2.58,2.5824,2.587,2.5943,2.5976,2.5965,2.6085,2.6051,2.6055,2.606,2.6101,2.6111,2.6121,2.5999,2.5999,2.5998,0,0,2.552,2.5551,2.5605,2.5636,2.5683,2.5703,2.5716,2.5763,2.5779,2.5846,2.5847,2.5891,2.5975,2.6008,2.6035,2.6115,2.6114,2.613,2.6165,2.6206,2.6215,2.6223,2.6252,2.6262,2.6137,2.6137,2.6137,0,2.5544,2.5617,2.5633,2.5686,2.5717,2.5718,2.5774,2.5804,2.5864,2.5885,2.5871,2.5976,2.6007,2.6088,2.6107,2.6129,2.6145,2.6125,2.6212,2.622,2.6228,2.6256,2.6267,2.6138,2.6138,2.6138,2.6138,0,2.5644,2.5695,2.5733,2.5791,2.5825,2.588,2.5904,2.5937,2.5944,2.5965,2.6033,2.607,2.6125,2.6145,2.6152,2.6227,2.6218,2.6208,2.6183,2.6239,2.6266,2.6277,2.6141,2.614,2.614,2.6139,0,0,2.5722,2.5788,2.5802,2.5828,2.588,2.592,2.5974,2.6027,2.6056,2.6097,2.6143,2.6214,2.6205,2.6236,2.6247,2.6283,2.6345,2.6268,2.627,2.6282,2.6431,2.6439,2.6451,2.6344,2.6346,2.6348,2.6427,0,2.5796,2.5892,2.5908,2.5993,2.6041,2.6043,2.609,2.6127,2.6148,2.6192,2.6215,2.6265,2.6248,2.6268,2.6303,2.633,2.6375,2.6324,2.6388,2.639,2.6378,2.6465,2.6474,2.6547,2.6438,2.6439,2.6441,0,2.5896,2.5939,2.6029,2.6074,2.6095,2.6137,2.6187,2.6229,2.6271,2.6284,2.6318,2.6325,2.6382,2.6353,2.6432,2.6397,2.6424,2.6441,2.6444,2.6452,2.642,2.6476,2.6571,2.6582,2.6457,2.6456,2.6455,0,2.5946,2.6026,2.609,2.6113,2.6167,2.6197,2.6221,2.6261,2.6292,2.6336,2.6357,2.6406,2.6434,2.6473,2.6493,2.647,2.6571,2.6544,2.6584,2.6583,2.6606,2.6604,2.6707,2.6621,2.6621,2.6621,2.662,0,2.6027,2.6082,2.6113,2.6153,2.6214,2.6232,2.6292,2.6316,2.6352,2.6396,2.6401,2.6442,2.6465,2.6511,2.6526,2.659,2.6602,2.6614,2.6618,2.6615,2.6613,2.6634,2.663,2.6624,2.6623,2.6622,2.6622,0,2.6094,2.6117,2.6187,2.6232,2.6245,2.6288,2.6327,2.6366,2.6386,2.6442,2.6457,2.6489,2.6542,2.6565,2.6631,2.6642,2.6715,2.6714,2.6701,2.6702,2.6741,2.6738,2.6862,2.688,2.678,2.6781,2.6782,0,2.6145,2.6187,2.6237,2.6267,2.6292,2.634,2.6372,2.639,2.6423,2.6474,2.6507,2.656,2.6604,2.669,2.6719,2.6769,2.6771,2.6811,2.6779,2.6774,2.6773,2.6771,2.6775,2.6817,2.6818,2.6819,2.682,0,2.6235,2.6244,2.6289,2.6338,2.6376,2.6416,2.6455,2.6479,2.6504,2.654,2.6595,2.6629,2.6696,2.6749,2.6801,2.6827,2.6828,2.6829,2.6841,2.6839,2.683,2.6837,2.6718,2.6827,2.6826,2.6826,2.6825,2.6825,2.6296,2.6334,2.6375,2.6425,2.6456,2.6492,2.6531,2.6556,2.6601,2.6657,2.6665,2.6724,2.6765,2.6835,2.6862,2.6909,2.6899,2.6916,2.6921,2.6925,2.6928,2.6821,2.6918,2.6918,2.6918,2.6917,2.6917,0,2.6387,2.6413,2.6459,2.6513,2.6553,2.6549,2.6592,2.6626,2.6677,2.6715,2.6758,2.6821,2.6872,2.6905,2.6957,2.6988,2.699,2.7001,2.7,2.7006,2.6933,2.6918,2.6999,2.6999,2.6999,2.6999,2.6999,2.6999,2.6438,2.6502,2.6516,2.6596,2.6622,2.6679,2.6704,2.6737,2.6768,2.6838,2.688,2.6901,2.6938,2.6992,2.704,2.7048,2.7068,2.708,2.7088,2.702,2.7011,2.7003,2.6989,2.7084,2.7084,2.7157,2.7158,2.7158]}]]